Time,TemperatureF,DewpointF,PressureIn,WindDirection,WindDirectionDegrees,WindSpeedMPH,WindSpeedGustMPH,Humidity,HourlyPrecipIn,Conditions,Clouds,dailyrainin,SoftwareType,DateUTC
2013-03-24 00:00:00,48.4,45.0,30.00,ESE,107,0.0,3.0,88,0.00,,,0.00,,2013-03-24 07:00:00,
2013-03-24 00:10:00,48.6,45.0,30.00,ESE,107,2.0,3.0,88,0.00,,,0.00,,2013-03-24 07:10:00,
2013-03-24 00:20:00,49.0,45.0,30.00,ESE,107,0.0,3.0,87,0.00,,,0.00,,2013-03-24 07:20:00,
2013-03-24 00:30:00,48.5,45.0,30.00,ESE,107,4.0,4.0,87,0.00,,,0.00,,2013-03-24 07:30:00,
2013-03-24 00:40:00,49.2,46.0,30.00,ESE,107,1.0,4.0,87,0.00,,,0.00,,2013-03-24 07:40:00,
2013-03-24 00:50:00,49.0,45.0,30.00,ESE,121,5.0,5.0,85,0.00,,,0.00,,2013-03-24 07:50:00,
2013-03-24 01:00:00,49.2,45.0,30.00,SE,142,2.0,5.0,85,0.00,,,0.00,,2013-03-24 08:00:00,
2013-03-24 01:10:00,50.4,45.0,30.00,SE,142,0.0,4.0,81,0.00,,,0.00,,2013-03-24 08:10:00,
2013-03-24 01:20:00,51.2,45.0,30.00,SE,142,1.0,4.0,80,0.00,,,0.00,,2013-03-24 08:20:00,
2013-03-24 01:30:00,51.0,43.0,30.00,SE,144,4.0,4.0,74,0.00,,,0.00,,2013-03-24 08:30:00,
2013-03-24 01:40:00,51.7,43.0,30.01,SE,144,3.0,4.0,71,0.00,,,0.00,,2013-03-24 08:40:00,
2013-03-24 01:50:00,51.5,42.0,30.00,SSW,194,4.0,7.0,70,0.00,,,0.00,,2013-03-24 08:50:00,
2013-03-24 02:00:00,51.5,42.0,30.00,SSW,192,1.0,5.0,71,0.00,,,0.00,,2013-03-24 09:00:00,
2013-03-24 02:10:00,51.2,42.0,30.00,SSW,192,1.0,3.0,71,0.00,,,0.00,,2013-03-24 09:10:00,
2013-03-24 02:20:00,50.8,42.0,30.00,SSW,192,0.0,0.0,72,0.00,,,0.00,,2013-03-24 09:20:00,
2013-03-24 02:30:00,50.5,42.0,30.00,SSW,192,0.0,0.0,72,0.00,,,0.00,,2013-03-24 09:30:00,
2013-03-24 02:40:00,50.6,42.0,30.00,SSW,192,0.0,1.0,72,0.00,,,0.00,,2013-03-24 09:40:00,
2013-03-24 02:50:00,50.7,42.0,30.00,SSW,192,0.0,1.0,71,0.00,,,0.00,,2013-03-24 09:50:00,
2013-03-24 03:00:00,50.0,42.0,30.00,SSW,192,0.0,1.0,75,0.00,,,0.00,,2013-03-24 10:00:00,
2013-03-24 03:10:00,49.8,42.0,30.00,SSW,192,0.0,1.0,75,0.00,,,0.00,,2013-03-24 10:10:00,
2013-03-24 03:20:00,50.8,42.0,29.99,SSW,192,0.0,0.0,72,0.00,,,0.00,,2013-03-24 10:20:00,
2013-03-24 03:30:00,51.4,42.0,29.99,SSW,192,0.0,2.0,69,0.00,,,0.00,,2013-03-24 10:30:00,
2013-03-24 03:40:00,51.1,41.0,29.99,SSW,192,1.0,3.0,69,0.00,,,0.00,,2013-03-24 10:40:00,
2013-03-24 03:50:00,51.1,41.0,29.99,SSW,192,1.0,1.0,69,0.00,,,0.00,,2013-03-24 10:50:00,
2013-03-24 04:00:00,51.0,41.0,29.99,SSW,192,2.0,3.0,68,0.00,,,0.00,,2013-03-24 11:00:00,
2013-03-24 04:10:00,52.4,41.0,29.98,SSW,192,1.0,4.0,64,0.00,,,0.00,,2013-03-24 11:10:00,
2013-03-24 04:20:00,53.4,39.0,29.99,SSW,192,0.0,2.0,59,0.00,,,0.00,,2013-03-24 11:20:00,
2013-03-24 04:30:00,54.2,37.0,29.99,South,191,1.0,4.0,53,0.00,,,0.00,,2013-03-24 11:30:00,
2013-03-24 04:40:00,53.9,39.0,29.99,SSW,193,0.0,3.0,57,0.00,,,0.00,,2013-03-24 11:40:00,
2013-03-24 04:50:00,52.4,40.0,29.99,SSW,193,2.0,2.0,62,0.00,,,0.00,,2013-03-24 11:50:00,
2013-03-24 05:00:00,50.2,41.0,29.99,SSW,194,2.0,3.0,70,0.00,,,0.00,,2013-03-24 12:00:00,
2013-03-24 05:10:00,48.6,41.0,29.99,NW,311,2.0,4.0,76,0.00,,,0.00,,2013-03-24 12:10:00,
2013-03-24 05:20:00,48.3,41.0,29.99,NW,311,2.0,3.0,75,0.00,,,0.00,,2013-03-24 12:20:00,
2013-03-24 05:30:00,48.7,42.0,30.00,NW,311,2.0,3.0,77,0.00,,,0.00,,2013-03-24 12:30:00,
2013-03-24 05:40:00,48.6,42.0,30.00,NW,311,2.0,3.0,79,0.00,,,0.00,,2013-03-24 12:40:00,
2013-03-24 05:50:00,48.8,42.0,30.00,NW,311,1.0,2.0,77,0.00,,,0.00,,2013-03-24 12:50:00,
2013-03-24 06:00:00,49.3,41.0,30.00,NW,311,0.0,1.0,72,0.00,,,0.00,,2013-03-24 13:00:00,
2013-03-24 06:10:00,49.9,39.0,30.00,NW,311,2.0,4.0,67,0.00,,,0.00,,2013-03-24 13:10:00,
2013-03-24 06:20:00,50.2,38.0,30.00,NW,311,0.0,0.0,64,0.00,,,0.00,,2013-03-24 13:20:00,
2013-03-24 06:30:00,50.3,39.0,30.00,NW,311,0.0,2.0,64,0.00,,,0.00,,2013-03-24 13:30:00,
2013-03-24 06:40:00,50.6,39.0,30.01,NW,316,0.0,3.0,65,0.00,,,0.00,,2013-03-24 13:40:00,
2013-03-24 06:50:00,50.3,39.0,30.00,NW,316,1.0,2.0,66,0.00,,,0.00,,2013-03-24 13:50:00,
2013-03-24 07:00:00,49.9,40.0,30.00,NW,316,2.0,2.0,69,0.00,,,0.00,,2013-03-24 14:00:00,
2013-03-24 07:10:00,49.4,40.0,30.00,NW,316,0.0,0.0,70,0.00,,,0.00,,2013-03-24 14:10:00,
2013-03-24 07:20:00,49.6,40.0,30.00,NW,317,0.0,2.0,69,0.00,,,0.00,,2013-03-24 14:20:00,
2013-03-24 07:30:00,50.3,39.0,30.00,NW,317,0.0,3.0,65,0.00,,,0.00,,2013-03-24 14:30:00,
2013-03-24 07:40:00,51.8,39.0,30.00,NW,317,1.0,3.0,61,0.00,,,0.00,,2013-03-24 14:40:00,
2013-03-24 07:50:00,53.5,36.0,30.01,NW,317,0.0,1.0,52,0.00,,,0.00,,2013-03-24 14:50:00,
2013-03-24 08:00:00,52.8,40.0,30.01,NW,315,0.0,3.0,62,0.00,,,0.00,,2013-03-24 15:00:00,
2013-03-24 08:10:00,53.1,40.0,30.01,NW,317,1.0,3.0,62,0.00,,,0.00,,2013-03-24 15:10:00,
2013-03-24 08:20:00,53.6,44.0,30.02,NW,317,0.0,1.0,69,0.00,,,0.00,,2013-03-24 15:20:00,
2013-03-24 08:30:00,53.6,43.0,30.02,NW,317,0.0,2.0,66,0.00,,,0.00,,2013-03-24 15:30:00,
2013-03-24 08:40:00,54.0,41.0,30.01,NW,317,0.0,1.0,61,0.00,,,0.00,,2013-03-24 15:40:00,
2013-03-24 08:50:00,55.9,44.0,30.01,NW,317,0.0,1.0,65,0.00,,,0.00,,2013-03-24 15:50:00,
2013-03-24 09:00:00,56.9,45.0,30.01,NW,317,0.0,1.0,64,0.00,,,0.00,,2013-03-24 16:00:00,
2013-03-24 09:10:00,57.8,44.0,30.01,NW,319,1.0,2.0,60,0.00,,,0.00,,2013-03-24 16:10:00,
2013-03-24 09:20:00,58.4,42.0,30.01,NW,319,0.0,1.0,54,0.00,,,0.00,,2013-03-24 16:20:00,
2013-03-24 09:30:00,59.9,43.0,30.01,NW,319,0.0,0.0,54,0.00,,,0.00,,2013-03-24 16:30:00,
2013-03-24 09:40:00,61.1,46.0,30.01,NW,319,0.0,2.0,57,0.00,,,0.00,,2013-03-24 16:40:00,
2013-03-24 09:50:00,61.5,44.0,30.02,NW,319,0.0,1.0,53,0.00,,,0.00,,2013-03-24 16:50:00,
2013-03-24 10:00:00,62.1,47.0,30.01,NW,319,1.0,2.0,58,0.00,,,0.00,,2013-03-24 17:00:00,
2013-03-24 10:10:00,62.2,47.0,30.01,NW,319,1.0,2.0,58,0.00,,,0.00,,2013-03-24 17:10:00,
2013-03-24 10:20:00,62.8,47.0,30.01,NW,319,0.0,3.0,57,0.00,,,0.00,,2013-03-24 17:20:00,
2013-03-24 10:30:00,63.2,48.0,30.00,NW,319,2.0,3.0,58,0.00,,,0.00,,2013-03-24 17:30:00,
2013-03-24 10:40:00,63.7,47.0,30.00,NW,319,4.0,4.0,55,0.00,,,0.00,,2013-03-24 17:40:00,
2013-03-24 10:50:00,64.5,46.0,30.00,NNW,334,3.0,5.0,52,0.00,,,0.00,,2013-03-24 17:50:00,
2013-03-24 11:00:00,65.0,46.0,30.01,NNW,338,4.0,6.0,50,0.00,,,0.00,,2013-03-24 18:00:00,
2013-03-24 11:10:00,65.7,45.0,30.01,NNW,343,4.0,6.0,47,0.00,,,0.00,,2013-03-24 18:10:00,
2013-03-24 11:20:00,65.0,45.0,30.01,NW,306,6.0,9.0,48,0.00,,,0.00,,2013-03-24 18:20:00,
2013-03-24 11:30:00,63.8,41.0,30.00,WNW,291,4.0,7.0,44,0.00,,,0.00,,2013-03-24 18:30:00,
2013-03-24 11:40:00,63.5,42.0,30.00,West,281,6.0,8.0,46,0.00,,,0.00,,2013-03-24 18:40:00,
2013-03-24 11:50:00,62.1,42.0,30.00,West,263,8.0,11.0,48,0.00,,,0.00,,2013-03-24 18:50:00,
2013-03-24 12:00:00,61.6,41.0,30.01,WNW,300,9.0,11.0,47,0.00,,,0.00,,2013-03-24 19:00:00,
2013-03-24 12:10:00,61.3,44.0,30.00,NW,314,7.0,11.0,53,0.00,,,0.00,,2013-03-24 19:10:00,
2013-03-24 12:20:00,61.7,43.0,30.00,WNW,299,11.0,12.0,50,0.00,,,0.00,,2013-03-24 19:20:00,
2013-03-24 12:30:00,62.7,42.0,30.00,NW,321,6.0,12.0,46,0.00,,,0.00,,2013-03-24 19:30:00,
2013-03-24 12:40:00,63.5,41.0,30.00,NW,306,6.0,12.0,43,0.00,,,0.00,,2013-03-24 19:40:00,
2013-03-24 12:50:00,63.4,40.0,30.00,NW,322,5.0,14.0,42,0.00,,,0.00,,2013-03-24 19:50:00,
2013-03-24 13:00:00,63.5,40.0,29.99,NNW,327,11.0,13.0,42,0.00,,,0.00,,2013-03-24 20:00:00,
2013-03-24 13:10:00,63.5,40.0,29.99,NW,323,7.0,15.0,42,0.00,,,0.00,,2013-03-24 20:10:00,
2013-03-24 13:20:00,63.6,39.0,29.98,NW,323,10.0,14.0,41,0.00,,,0.00,,2013-03-24 20:20:00,
2013-03-24 13:30:00,63.5,38.0,29.98,NW,321,12.0,14.0,39,0.00,,,0.00,,2013-03-24 20:30:00,
2013-03-24 13:40:00,63.7,41.0,29.98,NNW,331,8.0,13.0,43,0.00,,,0.00,,2013-03-24 20:40:00,
2013-03-24 13:50:00,63.8,40.0,29.98,NW,324,7.0,12.0,42,0.00,,,0.00,,2013-03-24 20:50:00,
2013-03-24 14:00:00,63.0,40.0,29.97,WNW,291,7.0,13.0,42,0.00,,,0.00,,2013-03-24 21:00:00,
2013-03-24 14:10:00,63.4,43.0,29.96,WNW,302,4.0,11.0,47,0.00,,,0.00,,2013-03-24 21:10:00,
2013-03-24 14:20:00,64.5,40.0,29.96,NW,317,9.0,11.0,40,0.00,,,0.00,,2013-03-24 21:20:00,
2013-03-24 14:30:00,64.9,43.0,29.95,WNW,295,5.0,10.0,45,0.00,,,0.00,,2013-03-24 21:30:00,
2013-03-24 14:40:00,62.6,43.0,29.95,WNW,292,11.0,12.0,49,0.00,,,0.00,,2013-03-24 21:40:00,
2013-03-24 14:50:00,61.8,45.0,29.95,NW,311,6.0,12.0,54,0.00,,,0.00,,2013-03-24 21:50:00,
2013-03-24 15:00:00,62.5,45.0,29.94,WNW,296,3.0,9.0,53,0.00,,,0.00,,2013-03-24 22:00:00,
2013-03-24 15:10:00,62.5,45.0,29.94,WNW,294,5.0,9.0,53,0.00,,,0.00,,2013-03-24 22:10:00,
2013-03-24 15:20:00,61.6,44.0,29.94,WNW,292,7.0,10.0,53,0.00,,,0.00,,2013-03-24 22:20:00,
2013-03-24 15:30:00,60.4,45.0,29.94,NW,313,6.0,12.0,57,0.00,,,0.00,,2013-03-24 22:30:00,
2013-03-24 15:40:00,59.5,46.0,29.94,WNW,282,6.0,14.0,61,0.00,,,0.00,,2013-03-24 22:40:00,
2013-03-24 15:50:00,58.2,47.0,29.94,WNW,284,9.0,12.0,66,0.00,,,0.00,,2013-03-24 22:50:00,
2013-03-24 16:00:00,57.3,46.0,29.94,NW,319,9.0,17.0,66,0.00,,,0.00,,2013-03-24 23:00:00,
2013-03-24 16:10:00,57.2,46.0,29.94,NW,321,9.0,18.0,66,0.00,,,0.00,,2013-03-24 23:10:00,
2013-03-24 16:20:00,57.1,47.0,29.93,NW,316,10.0,16.0,68,0.00,,,0.00,,2013-03-24 23:20:00,
2013-03-24 16:30:00,57.2,47.0,29.93,NW,315,10.0,14.0,68,0.00,,,0.00,,2013-03-24 23:30:00,
2013-03-24 16:40:00,57.1,46.0,29.92,NW,304,11.0,16.0,67,0.00,,,0.00,,2013-03-24 23:40:00,
2013-03-24 16:50:00,57.3,47.0,29.92,NW,306,12.0,17.0,68,0.00,,,0.00,,2013-03-24 23:50:00,
2013-03-24 17:00:00,57.5,47.0,29.91,NW,319,5.0,12.0,69,0.00,,,0.00,,2013-03-25 00:00:00,
2013-03-24 17:10:00,58.2,45.0,29.91,NW,318,13.0,15.0,61,0.00,,,0.00,,2013-03-25 00:10:00,
2013-03-24 17:20:00,58.4,45.0,29.91,NW,320,11.0,15.0,61,0.00,,,0.00,,2013-03-25 00:20:00,
2013-03-24 17:30:00,58.4,46.0,29.90,NW,304,7.0,15.0,64,0.00,,,0.00,,2013-03-25 00:30:00,
2013-03-24 17:40:00,57.8,46.0,29.90,NW,309,8.0,11.0,65,0.00,,,0.00,,2013-03-25 00:40:00,
2013-03-24 17:50:00,55.9,47.0,29.91,WNW,286,11.0,14.0,71,0.00,,,0.00,,2013-03-25 00:50:00,
2013-03-24 18:00:00,55.5,47.0,29.91,WNW,300,8.0,12.0,74,0.00,,,0.00,,2013-03-25 01:00:00,
2013-03-24 18:10:00,54.7,48.0,29.91,NW,324,6.0,10.0,77,0.00,,,0.00,,2013-03-25 01:10:00,
2013-03-24 18:20:00,54.0,47.0,29.91,WNW,287,4.0,10.0,78,0.00,,,0.00,,2013-03-25 01:20:00,
2013-03-24 18:30:00,52.6,47.0,29.90,WNW,294,12.0,13.0,81,0.00,,,0.00,,2013-03-25 01:30:00,
2013-03-24 18:40:00,51.9,47.0,29.90,WNW,302,11.0,14.0,83,0.00,,,0.00,,2013-03-25 01:40:00,
2013-03-24 18:50:00,51.5,47.0,29.90,NNW,337,7.0,13.0,84,0.00,,,0.00,,2013-03-25 01:50:00,
2013-03-24 19:00:00,51.1,47.0,29.90,NW,319,8.0,14.0,85,0.00,,,0.00,,2013-03-25 02:00:00,
2013-03-24 19:10:00,50.2,47.0,29.90,NW,304,11.0,13.0,88,0.00,,,0.00,,2013-03-25 02:10:00,
2013-03-24 19:20:00,49.7,47.0,29.91,NW,308,13.0,15.0,89,0.00,,,0.00,,2013-03-25 02:20:00,
2013-03-24 19:30:00,49.4,47.0,29.90,WNW,292,8.0,13.0,90,0.00,,,0.00,,2013-03-25 02:30:00,
2013-03-24 19:40:00,49.4,47.0,29.91,NW,323,4.0,8.0,90,0.00,,,0.00,,2013-03-25 02:40:00,
2013-03-24 19:50:00,49.3,47.0,29.91,NNW,332,2.0,9.0,90,0.00,,,0.00,,2013-03-25 02:50:00,
2013-03-24 20:00:00,49.2,46.0,29.91,NW,308,3.0,5.0,90,0.00,,,0.00,,2013-03-25 03:00:00,
2013-03-24 20:10:00,49.5,47.0,29.91,NW,308,3.0,4.0,90,0.00,,,0.00,,2013-03-25 03:10:00,
2013-03-24 20:20:00,49.5,46.0,29.91,WNW,299,3.0,5.0,89,0.00,,,0.00,,2013-03-25 03:20:00,
2013-03-24 20:30:00,49.3,47.0,29.91,WNW,299,0.0,2.0,90,0.00,,,0.00,,2013-03-25 03:30:00,
2013-03-24 20:40:00,49.1,46.0,29.92,WNW,299,0.0,0.0,90,0.00,,,0.00,,2013-03-25 03:40:00,
2013-03-24 20:50:00,49.0,46.0,29.92,WNW,299,0.0,2.0,90,0.00,,,0.00,,2013-03-25 03:50:00,
2013-03-24 21:00:00,48.8,46.0,29.92,WNW,299,1.0,1.0,91,0.00,,,0.00,,2013-03-25 04:00:00,
2013-03-24 21:10:00,48.3,46.0,29.92,WNW,299,0.0,3.0,91,0.00,,,0.00,,2013-03-25 04:10:00,
2013-03-24 21:20:00,48.7,46.0,29.92,WNW,299,0.0,2.0,92,0.00,,,0.00,,2013-03-25 04:20:00,
2013-03-24 21:30:00,48.2,46.0,29.93,NE,41,0.0,2.0,91,0.00,,,0.00,,2013-03-25 04:30:00,
2013-03-24 21:40:00,48.1,46.0,29.93,NE,41,0.0,2.0,92,0.00,,,0.00,,2013-03-25 04:40:00,
2013-03-24 21:50:00,48.1,46.0,29.93,NE,41,1.0,2.0,92,0.00,,,0.00,,2013-03-25 04:50:00,
2013-03-24 22:00:00,47.9,46.0,29.93,NE,41,0.0,0.0,92,0.00,,,0.00,,2013-03-25 05:00:00,
2013-03-24 22:10:00,47.7,46.0,29.93,NE,41,0.0,0.0,92,0.00,,,0.00,,2013-03-25 05:10:00,
2013-03-24 22:21:00,47.9,46.0,29.93,NE,41,0.0,0.0,93,0.00,,,0.00,,2013-03-25 05:21:00,
2013-03-24 22:30:00,47.9,46.0,29.93,NE,41,0.0,2.0,93,0.00,,,0.00,,2013-03-25 05:30:00,
2013-03-24 22:40:00,47.9,46.0,29.93,NE,41,0.0,1.0,93,0.00,,,0.00,,2013-03-25 05:40:00,
2013-03-24 22:50:00,47.9,46.0,29.93,NE,41,0.0,0.0,93,0.00,,,0.00,,2013-03-25 05:50:00,
2013-03-24 23:00:00,47.9,46.0,29.93,NE,41,0.0,0.0,93,0.00,,,0.00,,2013-03-25 06:00:00,
2013-03-24 23:10:00,47.8,46.0,29.93,NE,41,0.0,3.0,93,0.00,,,0.00,,2013-03-25 06:10:00,
2013-03-24 23:20:00,47.8,46.0,29.94,NE,41,0.0,2.0,94,0.00,,,0.00,,2013-03-25 06:20:00,
2013-03-24 23:30:00,47.6,46.0,29.94,NE,41,0.0,1.0,93,0.00,,,0.00,,2013-03-25 06:30:00,
2013-03-24 23:40:00,47.6,46.0,29.94,NE,41,0.0,1.0,94,0.00,,,0.00,,2013-03-25 06:40:00,
2013-03-24 23:50:00,47.7,46.0,29.94,NE,41,0.0,0.0,94,0.00,,,0.00,,2013-03-25 06:50:00,